TimeEST,TemperatureF,Dew PointF,Humidity,Sea Level PressureIn,VisibilityMPH,Wind Direction,Wind SpeedMPH,Gust SpeedMPH,PrecipitationIn,Events,Conditions,WindDirDegrees,DateUTC
12:56 AM,53.1,52.0,96,30.30,6.0,North,3.5,-,N/A,,Partly Cloudy,360,2012-11-30 05:56:00
1:56 AM,50.0,48.9,96,30.30,5.0,North,3.5,-,N/A,,Partly Cloudy,360,2012-11-30 06:56:00
2:56 AM,51.1,50.0,96,30.30,4.0,Calm,Calm,-,N/A,,Partly Cloudy,0,2012-11-30 07:56:00
3:40 AM,48.2,48.2,100,30.29,1.0,NNE,3.5,-,N/A,,Partly Cloudy,20,2012-11-30 08:40:00
3:52 AM,48.2,46.4,93,30.29,4.0,NNE,3.5,-,N/A,,Clear,20,2012-11-30 08:52:00
3:56 AM,46.9,46.9,100,30.29,4.0,NNE,3.5,-,N/A,,Clear,20,2012-11-30 08:56:00
4:56 AM,48.9,48.0,97,30.30,3.0,Calm,Calm,-,N/A,,Clear,0,2012-11-30 09:56:00
5:14 AM,48.2,48.2,100,30.30,3.0,Calm,Calm,-,N/A,,Scattered Clouds,0,2012-11-30 10:14:00
5:56 AM,50.0,48.9,96,30.31,5.0,North,3.5,-,N/A,,Mostly Cloudy,10,2012-11-30 10:56:00
6:56 AM,50.0,48.9,96,30.32,4.0,Calm,Calm,-,N/A,,Scattered Clouds,0,2012-11-30 11:56:00
7:07 AM,48.2,48.2,100,30.32,0.8,Calm,Calm,-,N/A,,Scattered Clouds,0,2012-11-30 12:07:00
7:27 AM,48.2,48.2,100,30.32,1.8,Calm,Calm,-,N/A,,Scattered Clouds,0,2012-11-30 12:27:00
7:40 AM,48.2,48.2,100,30.32,4.0,Calm,Calm,-,N/A,,Scattered Clouds,0,2012-11-30 12:40:00
7:56 AM,53.1,51.1,93,30.32,6.0,Calm,Calm,-,N/A,,Scattered Clouds,0,2012-11-30 12:56:00
8:56 AM,57.9,55.9,93,30.32,10.0,NE,3.5,-,N/A,,Mostly Cloudy,40,2012-11-30 13:56:00
9:56 AM,64.0,57.0,78,30.33,10.0,NE,4.6,-,N/A,,Mostly Cloudy,40,2012-11-30 14:56:00
10:56 AM,68.0,57.9,70,30.32,10.0,NNE,6.9,-,N/A,,Mostly Cloudy,30,2012-11-30 15:56:00
11:56 AM,70.0,57.0,63,30.30,10.0,East,6.9,-,N/A,,Mostly Cloudy,80,2012-11-30 16:56:00
12:56 PM,73.0,57.0,57,30.27,10.0,NE,6.9,-,N/A,,Mostly Cloudy,40,2012-11-30 17:56:00
1:56 PM,72.0,55.0,55,30.25,10.0,ENE,8.1,-,N/A,,Mostly Cloudy,70,2012-11-30 18:56:00
2:56 PM,70.0,55.9,61,30.24,10.0,ENE,9.2,-,N/A,,Mostly Cloudy,70,2012-11-30 19:56:00
3:56 PM,69.1,55.9,63,30.25,10.0,NE,9.2,-,N/A,,Mostly Cloudy,50,2012-11-30 20:56:00
4:56 PM,66.9,57.0,70,30.25,10.0,NE,5.8,-,N/A,,Mostly Cloudy,50,2012-11-30 21:56:00
5:56 PM,63.0,57.0,81,30.25,10.0,NE,4.6,-,N/A,,Mostly Cloudy,40,2012-11-30 22:56:00
6:56 PM,63.0,57.0,81,30.25,10.0,NE,6.9,-,N/A,,Mostly Cloudy,50,2012-11-30 23:56:00
7:56 PM,61.0,57.0,87,30.27,10.0,NE,3.5,-,N/A,,Mostly Cloudy,40,2012-12-01 00:56:00
8:56 PM,60.1,57.0,90,30.27,10.0,Calm,Calm,-,N/A,,Overcast,0,2012-12-01 01:56:00
9:56 PM,61.0,57.0,87,30.27,10.0,Calm,Calm,-,N/A,,Mostly Cloudy,0,2012-12-01 02:56:00
10:56 PM,59.0,55.9,90,30.27,10.0,Calm,Calm,-,N/A,,Mostly Cloudy,0,2012-12-01 03:56:00
11:56 PM,57.9,55.9,93,30.27,10.0,North,4.6,-,N/A,,Mostly Cloudy,10,2012-12-01 04:56:00